This is the latest recevied weather packets stored in our database for station/object KB7KFC-3. If no packets are shown the sender has not sent any weather packets the latest 10 day(s).
| Time | Temp. | Humidity | Pressure | Rain* | Wind** | Luminosity | Snow |
|---|---|---|---|---|---|---|---|
| 1777047992 | 23.89° C | 23% | 1012.5 hPa | 0 mm | - | - | - |
| 1777047814 | 23.33° C | 20% | 1012.5 hPa | 0 mm | - | - | - |
| 1777047634 | 23.33° C | 19% | 1012.4 hPa | 0 mm | - | - | - |
| 1777047453 | 23.33° C | 22% | 1012.4 hPa | 0 mm | - | - | - |
| 1777047272 | 22.78° C | 23% | 1012.5 hPa | 0 mm | - | - | - |
| 1777047092 | 22.78° C | 22% | 1012.4 hPa | 0 mm | - | - | - |
| 1777046913 | 22.22° C | 25% | 1012.5 hPa | 0 mm | - | - | - |
| 1777046732 | 22.22° C | 22% | 1012.4 hPa | 0 mm | - | - | - |
| 1777046553 | 22.22° C | 22% | 1012.4 hPa | 0 mm | - | - | - |
| 1777046372 | 22.78° C | 22% | 1012.4 hPa | 0 mm | - | - | - |
| 1777046193 | 22.22° C | 21% | 1012.4 hPa | 0 mm | - | - | - |
| 1777046014 | 22.22° C | 24% | 1012.4 hPa | 0 mm | - | - | - |
| 1777045834 | 22.22° C | 24% | 1012.4 hPa | 0 mm | - | - | - |
| 1777045653 | 22.22° C | 24% | 1012.4 hPa | 0 mm | - | - | - |
| 1777045473 | 21.67° C | 23% | 1012.4 hPa | 0 mm | - | - | - |
| 1777045292 | 21.67° C | 22% | 1012.4 hPa | 0 mm | - | - | - |
| 1777045112 | 21.67° C | 23% | 1012.5 hPa | 0 mm | - | - | - |
| 1777044932 | 21.67° C | 24% | 1012.5 hPa | 0 mm | - | - | - |
| 1777044752 | 21.11° C | 26% | 1012.5 hPa | 0 mm | - | - | - |
| 1777044572 | 21.11° C | 25% | 1012.6 hPa | 0 mm | - | - | - |
| 1777044393 | 21.11° C | 25% | 1012.6 hPa | 0 mm | - | - | - |
| 1777044213 | 20.56° C | 25% | 1012.5 hPa | 0 mm | - | - | - |
| 1777044032 | 20.56° C | 25% | 1012.5 hPa | 0 mm | - | - | - |
| 1777043853 | 20° C | 27% | 1012.5 hPa | 0 mm | - | - | - |
| 1777043673 | 20° C | 26% | 1012.5 hPa | 0 mm | - | - | - |
* Rain latest hour (hover to see other rain measurements)
** Current wind speed in m/s (hover to see current wind gust speed)